| time (UTC) | temp F | wind direction | speed MPH | gust MPH | rain 1hr in | rain 24hr in | rain mn in | humidity % | barometer mb |
| 20260906024502 | 59 | 19 | 12.0 | 19.0 | 0.00 | 0.06 | 0.06 | 67 | 1020.7 |
| 20260906023102 | 60 | 18 | 13.0 | 18.0 | 0.00 | 0.06 | 0.06 | 66 | 1020.6 |
| 20260906021559 | 61 | 27 | 10.0 | 14.0 | 0.00 | 0.06 | 0.06 | 64 | 1020.7 |
| 20260906020055 | 62 | 34 | 8.0 | 13.0 | 0.00 | 0.06 | 0.06 | 61 | 1020.6 |
| 20260906014607 | 63 | 41 | 5.0 | 9.0 | 0.00 | 0.06 | 0.06 | 59 | 1020.6 |
| 20260906013055 | 64 | 24 | 6.0 | 12.0 | 0.00 | 0.06 | 0.06 | 58 | 1020.6 |
| 20260906011552 | 65 | 30 | 6.0 | 13.0 | 0.00 | 0.06 | 0.06 | 56 | 1020.6 |
| 20260906010049 | 66 | 359 | 10.0 | 14.0 | 0.00 | 0.06 | 0.06 | 55 | 1020.5 |
| 20260906004549 | 66 | 26 | 7.0 | 14.0 | 0.00 | 0.06 | 0.06 | 54 | 1020.6 |
| 20260906003105 | 67 | 33 | 8.0 | 13.0 | 0.00 | 0.06 | 0.06 | 54 | 1020.7 |
| 20260906001549 | 68 | 15 | 9.0 | 14.0 | 0.00 | 0.06 | 0.06 | 53 | 1020.7 |
| 20260906000045 | 69 | 37 | 11.0 | 14.0 | 0.00 | 0.06 | 0.06 | 53 | 1020.8 |
| 20260905234544 | 68 | 41 | 8.0 | 13.0 | 0.00 | 0.06 | 0.06 | 53 | 1021.1 |
| 20260905233043 | 69 | 67 | 7.0 | 12.0 | 0.00 | 0.06 | 0.06 | 50 | 1020.9 |
| 20260905231543 | 70 | 51 | 7.0 | 11.0 | 0.00 | 0.06 | 0.06 | 49 | 1020.9 |
| 20260905230039 | 72 | 65 | 4.0 | 8.0 | 0.00 | 0.06 | 0.06 | 46 | 1020.7 |
| 20260905224539 | 71 | 6 | 7.0 | 12.0 | 0.00 | 0.06 | 0.06 | 47 | 1020.8 |
| 20260905223038 | 72 | 63 | 3.0 | 14.0 | 0.00 | 0.06 | 0.06 | 47 | 1020.9 |
| 20260905221537 | 72 | 37 | 3.0 | 12.0 | 0.00 | 0.06 | 0.06 | 45 | 1020.9 |
| 20260905220006 | 72 | 282 | 2.0 | 7.0 | 0.00 | 0.06 | 0.06 | 40 | 1021.0 |
| 20260905214506 | 73 | 252 | 2.0 | 5.0 | 0.00 | 0.06 | 0.06 | 39 | 1021.0 |
| 20260905213001 | 72 | 246 | 3.0 | 6.0 | 0.00 | 0.06 | 0.06 | 39 | 1021.2 |
| 20260905211605 | 72 | 344 | 4.0 | 7.0 | 0.00 | 0.06 | 0.06 | 40 | 1021.2 |
| 20260905210100 | 71 | 107 | 0.0 | 7.0 | 0.00 | 0.06 | 0.06 | 41 | 1021.3 |
| 20260905204603 | 71 | 337 | 4.0 | 8.0 | 0.00 | 0.06 | 0.06 | 41 | 1021.3 |
| 20260905203058 | 71 | 231 | 2.0 | 6.0 | 0.00 | 0.06 | 0.06 | 41 | 1021.3 |
| 20260905201553 | 71 | 300 | 3.0 | 6.0 | 0.00 | 0.06 | 0.06 | 42 | 1021.4 |
| 20260905200056 | 70 | 328 | 3.0 | 12.0 | 0.00 | 0.06 | 0.06 | 42 | 1021.5 |
| 20260905194550 | 69 | 41 | 2.0 | 8.0 | 0.00 | 0.06 | 0.06 | 43 | 1021.6 |
| 20260905193147 | 69 | 356 | 4.0 | 9.0 | 0.00 | 0.06 | 0.06 | 46 | 1021.8 |
| 20260905191552 | 69 | 330 | 4.0 | 9.0 | 0.00 | 0.06 | 0.06 | 44 | 1021.8 |
| 20260905190044 | 68 | 339 | 5.0 | 8.0 | 0.00 | 0.06 | 0.06 | 47 | 1022.0 |
| 20260905184540 | 68 | 285 | 3.0 | 8.0 | 0.00 | 0.06 | 0.06 | 48 | 1022.1 |
| 20260905183037 | 67 | 335 | 1.0 | 8.0 | 0.00 | 0.06 | 0.06 | 50 | 1022.4 |
| 20260905181536 | 67 | 340 | 1.0 | 6.0 | 0.00 | 0.06 | 0.06 | 52 | 1022.3 |
| 20260905180030 | 66 | 345 | 0.0 | 5.0 | 0.00 | 0.06 | 0.06 | 56 | 1022.4 |
| 20260905174527 | 65 | 331 | 1.0 | 6.0 | 0.00 | 0.06 | 0.06 | 56 | 1022.5 |
| 20260905173023 | 64 | 328 | 1.0 | 5.0 | 0.00 | 0.06 | 0.06 | 59 | 1022.4 |
| 20260905171525 | 63 | 326 | 2.0 | 6.0 | 0.00 | 0.06 | 0.06 | 60 | 1022.3 |
| 20260905170020 | 63 | 316 | 1.0 | 5.0 | 0.00 | 0.06 | 0.06 | 63 | 1022.4 |
| 20260905164518 | 62 | 23 | 0.0 | 4.0 | 0.00 | 0.06 | 0.06 | 71 | 1022.5 |
| 20260905163114 | 60 | 326 | 2.0 | 4.0 | 0.00 | 0.06 | 0.06 | 72 | 1022.4 |
| 20260905161508 | 58 | 318 | 0.0 | 1.0 | 0.00 | 0.06 | 0.06 | 81 | 1022.4 |
| 20260905160020 | 58 | 282 | 0.0 | 2.0 | 0.00 | 0.06 | 0.06 | 81 | 1022.2 |
| 20260905154505 | 57 | 335 | 0.0 | 1.0 | 0.00 | 0.06 | 0.06 | 82 | 1022.5 |
| 20260905153001 | 57 | 302 | 0.0 | 1.0 | 0.01 | 0.06 | 0.06 | 84 | 1022.0 |
| 20260905151559 | 56 | 302 | 0.0 | 1.0 | 0.01 | 0.06 | 0.06 | 85 | 1022.1 |
| 20260905150100 | 54 | 333 | 0.0 | 4.0 | 0.01 | 0.06 | 0.06 | 87 | 1022.0 |
| 20260905144557 | 54 | 347 | 1.0 | 5.0 | 0.02 | 0.06 | 0.06 | 88 | 1022.0 |
| 20260905143057 | 53 | 335 | 1.0 | 5.0 | 0.04 | 0.05 | 0.05 | 87 | 1021.7 |
| 20260905141553 | 52 | 335 | 3.0 | 7.0 | 0.05 | 0.05 | 0.05 | 88 | 1021.1 |
| 20260905140052 | 52 | 323 | 0.0 | 3.0 | 0.05 | 0.05 | 0.05 | 87 | 1022.1 |
| 20260905134557 | 51 | 337 | 0.0 | 2.0 | 0.04 | 0.04 | 0.04 | 85 | 1022.4 |
| 20260905133049 | 51 | 276 | 1.0 | 5.0 | 0.00 | 0.00 | 0.00 | 83 | 1022.3 |
| 20260905131550 | 52 | 256 | 0.0 | 3.0 | 0.00 | 0.00 | 0.00 | 81 | 1021.9 |
| 20260905130042 | 52 | 262 | 0.0 | 0.0 | 0.00 | 0.00 | 0.00 | 79 | 1021.1 |
| 20260905124542 | 51 | 240 | 0.0 | 1.0 | 0.00 | 0.00 | 0.00 | 78 | 1021.3 |
| 20260905123039 | 52 | 232 | 0.0 | 1.0 | 0.00 | 0.00 | 0.00 | 76 | 1021.0 |
| 20260905121535 | 53 | 277 | 0.0 | 4.0 | 0.00 | 0.00 | 0.00 | 73 | 1020.8 |
| 20260905120034 | 53 | 231 | 1.0 | 8.0 | 0.00 | 0.00 | 0.00 | 71 | 1021.1 |
| 20260905114540 | 53 | 268 | 0.0 | 1.0 | 0.00 | 0.00 | 0.00 | 72 | 1021.0 |
| 20260905113036 | 52 | 31 | 0.0 | 1.0 | 0.00 | 0.00 | 0.00 | 72 | 1020.5 |
| 20260905111644 | 53 | 276 | 0.0 | 2.0 | 0.00 | 0.00 | 0.00 | 72 | 1020.3 |
| 20260905110056 | 52 | 252 | 1.0 | 4.0 | 0.00 | 0.00 | 0.00 | 72 | 1020.2 |
| 20260905104553 | 52 | 250 | 0.0 | 3.0 | 0.00 | 0.00 | 0.00 | 73 | 1019.9 |
| 20260905103055 | 51 | 342 | 0.0 | 2.0 | 0.00 | 0.00 | 0.00 | 74 | 1019.8 |
| 20260905101552 | 50 | 359 | 0.0 | 2.0 | 0.00 | 0.00 | 0.00 | 75 | 1020.1 |
| 20260905094547 | 50 | 1 | 0.0 | 1.0 | 0.00 | 0.00 | 0.00 | 72 | 1019.5 |
| 20260905093046 | 50 | 1 | 0.0 | 1.0 | 0.00 | 0.00 | 0.00 | 72 | 1019.8 |
| 20260905091543 | 50 | 1 | 0.0 | 1.0 | 0.00 | 0.00 | 0.00 | 71 | 1019.7 |
| 20260905090041 | 51 | 247 | 0.0 | 1.0 | 0.00 | 0.00 | 0.00 | 70 | 1019.0 |
| 20260905084506 | 52 | 247 | 0.0 | 1.0 | 0.00 | 0.00 | 0.00 | 67 | 1018.9 |
| 20260905083005 | 53 | 240 | 0.0 | 2.0 | 0.00 | 0.00 | 0.00 | 66 | 1018.5 |
| 20260905081502 | 54 | 45 | 4.0 | 5.0 | 0.00 | 0.00 | 0.00 | 65 | 1018.2 |
| 20260905074559 | 55 | 42 | 4.0 | 8.0 | 0.00 | 0.00 | 0.00 | 64 | 1019.5 |
| 20260905073058 | 54 | 300 | 0.0 | 4.0 | 0.00 | 0.00 | 0.00 | 66 | 1019.4 |
| 20260905071556 | 53 | 240 | 0.0 | 2.0 | 0.00 | 0.00 | 0.00 | 67 | 1019.4 |
| 20260905070050 | 53 | 317 | 0.0 | 1.0 | 0.00 | 0.00 | 0.00 | 64 | 1018.9 |
| 20260905064549 | 55 | 354 | 1.0 | 3.0 | 0.00 | 0.00 | 0.00 | 62 | 1018.9 |
| 20260905063058 | 55 | 304 | 3.0 | 7.0 | 0.00 | 0.00 | 0.00 | 62 | 1018.9 |
| 20260905061557 | 56 | 302 | 0.0 | 2.0 | 0.00 | 0.00 | 0.00 | 62 | 1019.2 |
| 20260905060039 | 57 | 291 | 0.0 | 1.0 | 0.00 | 0.00 | 0.00 | 57 | 1018.9 |
| 20260905054539 | 59 | 304 | 1.0 | 6.0 | 0.00 | 0.00 | 0.00 | 55 | 1018.8 |
| 20260905053040 | 58 | 335 | 2.0 | 6.0 | 0.00 | 0.00 | 0.00 | 56 | 1018.5 |
| 20260905051536 | 58 | 349 | 1.0 | 4.0 | 0.00 | 0.00 | 0.00 | 57 | 1018.4 |
| 20260905050035 | 59 | 305 | 0.0 | 4.0 | 0.00 | 0.00 | 0.00 | 55 | 1018.5 |
| 20260905044538 | 60 | 312 | 1.0 | 4.0 | 0.00 | 0.00 | 0.00 | 54 | 1018.5 |
| 20260905043035 | 62 | 348 | 3.0 | 6.0 | 0.00 | 0.00 | 0.00 | 50 | 1018.2 |
| 20260905041532 | 61 | 316 | 0.0 | 0.0 | 0.00 | 0.00 | 0.00 | 51 | 1018.9 |
| 20260905040026 | 61 | 313 | 0.0 | 0.0 | 0.00 | 0.00 | 0.00 | 50 | 1017.9 |
| 20260905034524 | 62 | 344 | 1.0 | 7.0 | 0.00 | 0.00 | 0.00 | 48 | 1017.3 |
| 20260905033028 | 62 | 337 | 4.0 | 9.0 | 0.00 | 0.00 | 0.00 | 49 | 1017.1 |
| 20260905031528 | 63 | 285 | 1.0 | 5.0 | 0.00 | 0.00 | 0.00 | 48 | 1017.4 |
| 20260905030029 | 64 | 322 | 3.0 | 10.0 | 0.00 | 0.00 | 0.00 | 46 | 1017.2 |